When you browse on this site, cookies collect data to enhance your experience and personalize the content and advertising you see.
Visit our Privacy Policy to learn more. By continuing to use the site, you agree to this use of cookies and data.
  • In Hungary
  • List of Countries
  • For 7 days
  • Water Temperature
  • Weather Map
  • News
  • Weather Widgets
  • user-avatar
    Login

    Hourly Weather Makzyr

    Today, 25 January, Saturday

    Time Temperature Precipitation Wind Pressure Humidity
    00:00 -4°C° 0 mm 4 mps 742 mmHg 91%
    01:00 -5°C° 0 mm 3 mps 742 mmHg 93%
    02:00 -6°C° 0 mm 3 mps 742 mmHg 94%
    03:00 -5°C° 0 mm 2 mps 743 mmHg 96%
    04:00 -6°C° 0 mm 2 mps 742 mmHg 96%
    05:00 -6°C° 0 mm 2 mps 742 mmHg 96%
    06:00 -6°C° 0 mm 2 mps 742 mmHg 97%
    07:00 -5°C° 0.3 mm 2 mps 741 mmHg 96%
    08:00 -5°C° 0.3 mm 3 mps 740 mmHg 96%
    09:00 -5°C° 0.3 mm 3 mps 740 mmHg 96%
    10:00 -4°C° 0.6 mm 3 mps 739 mmHg 96%
    11:00 -4°C° 0.6 mm 4 mps 738 mmHg 96%
    12:00 -3°C° 0 mm 4 mps 737 mmHg 96%
    13:00 -4°C° 0.5 mm 4 mps 736 mmHg 96%
    14:00 -5°C° 0.5 mm 5 mps 736 mmHg 95%
    15:00 -5°C° 0.5 mm 5 mps 735 mmHg 95%
    16:00 -5°C° 0.4 mm 5 mps 736 mmHg 95%
    17:00 -5°C° 0.4 mm 6 mps 737 mmHg 94%
    18:00 -4°C° 0 mm 7 mps 737 mmHg 91%
    19:00 -7°C° 0.1 mm 7 mps 738 mmHg 89%
    20:00 -9°C° 0.1 mm 7 mps 740 mmHg 87%
    21:00 -11°C° 0.1 mm 7 mps 741 mmHg 85%
    22:00 -12°C° 0 mm 7 mps 742 mmHg 86%
    23:00 -12°C° 0 mm 6 mps 743 mmHg 88%

    Tomorrow, 26 January, Sunday

    Time Temperature Precipitation Wind Pressure Humidity
    00:00 -12°C° 0 mm 5 mps 744 mmHg 89%
    01:00 -13°C° 0 mm 5 mps 745 mmHg 90%
    02:00 -14°C° 0 mm 4 mps 745 mmHg 91%
    03:00 -15°C° 0 mm 4 mps 746 mmHg 92%
    04:00 -15°C° 0 mm 4 mps 746 mmHg 92%
    05:00 -15°C° 0 mm 4 mps 746 mmHg 93%
    06:00 -15°C° 0 mm 4 mps 747 mmHg 93%
    07:00 -15°C° 0.1 mm 4 mps 747 mmHg 93%
    08:00 -15°C° 0.1 mm 4 mps 748 mmHg 92%
    09:00 -15°C° 0.1 mm 4 mps 748 mmHg 92%
    10:00 -15°C° 0 mm 4 mps 749 mmHg 91%
    11:00 -15°C° 0 mm 4 mps 749 mmHg 90%
    12:00 -14°C° 0 mm 4 mps 750 mmHg 89%
    13:00 -15°C° 0 mm 4 mps 750 mmHg 89%
    14:00 -15°C° 0 mm 4 mps 750 mmHg 90%
    15:00 -16°C° 0 mm 4 mps 751 mmHg 90%
    16:00 -16°C° 0 mm 4 mps 751 mmHg 91%
    17:00 -16°C° 0 mm 4 mps 751 mmHg 91%
    18:00 -17°C° 0 mm 4 mps 752 mmHg 92%
    19:00 -16°C° 0.1 mm 3 mps 752 mmHg 92%
    20:00 -16°C° 0.1 mm 3 mps 752 mmHg 92%
    21:00 -16°C° 0.1 mm 3 mps 752 mmHg 93%
    22:00 -16°C° 0 mm 3 mps 752 mmHg 93%
    23:00 -17°C° 0 mm 3 mps 752 mmHg 93%

    Day after tomorrow, 27 January, Monday

    Time Temperature Precipitation Wind Pressure Humidity
    00:00 -16°C° 0 mm 2 mps 752 mmHg 94%
    01:00 -17°C° 0 mm 2 mps 752 mmHg 94%
    02:00 -17°C° 0 mm 2 mps 752 mmHg 95%
    03:00 -18°C° 0 mm 2 mps 752 mmHg 95%
    04:00 -18°C° 0 mm 3 mps 752 mmHg 94%
    05:00 -17°C° 0 mm 3 mps 751 mmHg 93%
    06:00 -16°C° 0 mm 3 mps 751 mmHg 92%
    07:00 -17°C° 0.1 mm 4 mps 751 mmHg 91%
    08:00 -16°C° 0.1 mm 4 mps 750 mmHg 91%
    09:00 -15°C° 0.1 mm 4 mps 750 mmHg 90%
    10:00 -14°C° 0 mm 5 mps 749 mmHg 88%
    11:00 -14°C° 0 mm 5 mps 749 mmHg 87%
    12:00 -13°C° 0 mm 5 mps 748 mmHg 85%
    13:00 -12°C° 0.1 mm 5 mps 748 mmHg 87%
    14:00 -12°C° 0.1 mm 5 mps 747 mmHg 89%
    15:00 -11°C° 0.1 mm 5 mps 747 mmHg 91%
    16:00 -11°C° 0.2 mm 5 mps 746 mmHg 91%
    17:00 -11°C° 0.2 mm 5 mps 746 mmHg 92%
    18:00 -10°C° 0.2 mm 5 mps 745 mmHg 92%
    19:00 -10°C° 0.1 mm 5 mps 745 mmHg 91%
    20:00 -10°C° 0.1 mm 5 mps 745 mmHg 90%
    21:00 -10°C° 0.1 mm 5 mps 744 mmHg 89%
    22:00 -10°C° 0.1 mm 5 mps 744 mmHg 90%
    23:00 -8°C° 0.1 mm 4 mps 744 mmHg 91%

    28 January, Tuesday

    Time Temperature Precipitation Wind Pressure Humidity
    00:00 -8°C° 0.1 mm 4 mps 744 mmHg 93%
    01:00 -8°C° 0.1 mm 4 mps 744 mmHg 92%
    02:00 -7°C° 0.1 mm 4 mps 744 mmHg 92%
    03:00 -7°C° 0.1 mm 4 mps 744 mmHg 91%
    04:00 -7°C° 0 mm 4 mps 745 mmHg 91%
    05:00 -7°C° 0 mm 4 mps 745 mmHg 91%
    06:00 -7°C° 0 mm 4 mps 745 mmHg 91%
    07:00 -8°C° 0 mm 4 mps 746 mmHg 91%
    08:00 -9°C° 0 mm 4 mps 746 mmHg 92%
    09:00 -8°C° 0 mm 3 mps 747 mmHg 92%
    10:00 -8°C° 0 mm 3 mps 747 mmHg 91%
    11:00 -9°C° 0 mm 4 mps 747 mmHg 90%
    12:00 -9°C° 0 mm 4 mps 748 mmHg 89%
    13:00 -8°C° 0 mm 3 mps 748 mmHg 90%
    14:00 -9°C° 0 mm 3 mps 748 mmHg 90%
    15:00 -9°C° 0 mm 3 mps 748 mmHg 91%
    16:00 -9°C° 0.1 mm 3 mps 748 mmHg 92%
    17:00 -9°C° 0.1 mm 3 mps 748 mmHg 92%
    18:00 -9°C° 0.1 mm 3 mps 748 mmHg 93%
    19:00 -10°C° 0.1 mm 3 mps 748 mmHg 93%
    20:00 -10°C° 0.1 mm 3 mps 749 mmHg 93%
    21:00 -10°C° 0.1 mm 3 mps 749 mmHg 92%
    22:00 -12°C° 0.1 mm 3 mps 749 mmHg 93%
    23:00 -13°C° 0.1 mm 3 mps 749 mmHg 93%

    29 January, Wednesday

    Time Temperature Precipitation Wind Pressure Humidity
    00:00 -13°C° 0.1 mm 2 mps 749 mmHg 94%
    01:00 -13°C° 0 mm 2 mps 750 mmHg 94%
    02:00 -14°C° 0 mm 2 mps 750 mmHg 95%
    03:00 -14°C° 0 mm 2 mps 750 mmHg 96%
    04:00 -15°C° 0 mm 2 mps 750 mmHg 96%
    05:00 -15°C° 0 mm 2 mps 750 mmHg 96%
    06:00 -13°C° 0 mm 1 mps 750 mmHg 96%
    07:00 -16°C° 0 mm 2 mps 751 mmHg 96%
    08:00 -17°C° 0 mm 2 mps 751 mmHg 96%
    09:00 -18°C° 0 mm 2 mps 752 mmHg 96%
    10:00 -18°C° 0 mm 2 mps 752 mmHg 96%
    11:00 -17°C° 0 mm 2 mps 753 mmHg 95%
    12:00 -17°C° 0 mm 2 mps 753 mmHg 94%
    13:00 -18°C° 0 mm 3 mps 754 mmHg 93%
    14:00 -18°C° 0 mm 3 mps 755 mmHg 93%
    15:00 -18°C° 0 mm 3 mps 755 mmHg 92%
    16:00 -19°C° 0 mm 3 mps 756 mmHg 92%
    17:00 -22°C° 0 mm 4 mps 757 mmHg 93%
    18:00 -22°C° 0 mm 4 mps 757 mmHg 93%
    19:00 -23°C° 0 mm 4 mps 758 mmHg 93%
    20:00 -23°C° 0 mm 4 mps 759 mmHg 93%
    21:00 -23°C° 0 mm 4 mps 760 mmHg 93%
    22:00 -24°C° 0 mm 4 mps 760 mmHg 93%
    23:00 -23°C° 0 mm 3 mps 761 mmHg 94%

    30 January, Thursday

    Time Temperature Precipitation Wind Pressure Humidity
    00:00 -23°C° 0 mm 3 mps 761 mmHg 94%
    01:00 -24°C° 0 mm 3 mps 762 mmHg 94%
    02:00 -24°C° 0 mm 3 mps 762 mmHg 94%
    03:00 -24°C° 0 mm 3 mps 763 mmHg 95%
    04:00 -24°C° 0 mm 3 mps 763 mmHg 94%
    05:00 -24°C° 0 mm 3 mps 764 mmHg 94%
    06:00 -24°C° 0 mm 3 mps 764 mmHg 94%
    07:00 -25°C° 0 mm 3 mps 765 mmHg 94%
    08:00 -26°C° 0 mm 3 mps 766 mmHg 95%
    09:00 -27°C° 0 mm 3 mps 766 mmHg 95%
    10:00 -27°C° 0 mm 3 mps 767 mmHg 95%
    11:00 -27°C° 0 mm 3 mps 767 mmHg 95%
    12:00 -27°C° 0 mm 3 mps 767 mmHg 94%
    13:00 -27°C° 0 mm 3 mps 767 mmHg 94%
    14:00 -26°C° 0 mm 2 mps 767 mmHg 94%
    15:00 -26°C° 0 mm 2 mps 767 mmHg 94%
    16:00 -26°C° 0 mm 2 mps 767 mmHg 95%
    17:00 -26°C° 0 mm 2 mps 767 mmHg 95%
    18:00 -27°C° 0 mm 2 mps 767 mmHg 95%
    19:00 -27°C° 0 mm 2 mps 767 mmHg 96%
    20:00 -26°C° 0 mm 2 mps 767 mmHg 96%
    21:00 -26°C° 0 mm 2 mps 767 mmHg 97%
    22:00 -26°C° 0 mm 2 mps 767 mmHg 97%
    23:00 -26°C° 0 mm 2 mps 766 mmHg 97%
    Show more